Regional Weather Roundup
Issued by NWS Upton, NY

Current Version | Previous Version | Text Only | Print | Product List | Glossary Off
Versions: 1 2 3 4 5 6 7 8 9 10 11 12 13 14 15 16 17 18 19 20 21 22 23 24 25 26 27

000
ASUS41 KOKX 252009
RWROKX

REGIONAL WEATHER ROUNDUP
NATIONAL WEATHER SERVICE NEW YORK NY
400 PM EDT THU MAY 25 2017

NOTE: "FAIR" INDICATES FEW OR NO CLOUDS BELOW 12,000 FEET WITH NO
SIGNIFICANT WEATHER AND/OR OBSTRUCTIONS TO VISIBILITY.

NYZ071-072-176-178-NJZ106-104-252100-
NEW YORK CITY METRO AREA

CITY           SKY/WX    TMP DP  RH WIND       PRES   REMARKS
Central Park   CLOUDY    57  57 100 E9G16     29.58F FOG
Wall St Helipt LGT RAIN  59  57  93 NE12      29.56F FOG
Bronx Bot Gard   N/A     55  54  94 N10       29.58F
LaGuardia APRT CLOUDY    58  56  93 NE17      29.56F FOG
Kennedy INTL   CLOUDY    59  59 100 E16G23    29.56F FOG
Breezy Point     N/A     55 N/A N/A E15G24      N/A
Newark/Liberty DRIZZLE   58  58 100 NE9       29.56S FOG
Teterboro      LGT RAIN  58  56  93 E9G20     29.56F FOG
$$

NYZ177-179-078>081-252100-
LONG ISLAND NEW YORK

CITY           SKY/WX    TMP DP  RH WIND       PRES   REMARKS
Jones Beach      N/A     55 N/A N/A E18G24      N/A
Matinecock PT  NOT AVBL
Farmingdale    FOG       59  58  96 E13       29.56F VSB 1
MacArthur/ISP  DRIZZLE   59  59 100 E13G21    29.57F FOG
Shirley        LGT RAIN  58  58 100 E8        29.59F FOG
Mt Sinai Harb    N/A     55 N/A N/A E10G16      N/A
Westhampton    LGT RAIN  57  55  93 E10G20    29.60F FOG
East Hampton   CLOUDY    55  55  97 E10G20    29.61F FOG
Montauk          N/A     55  55 100 NE12G21   29.64F
$$

NYZ052-065-067-252100-
HUDSON VALLEY

CITY           SKY/WX    TMP DP  RH WIND       PRES   REMARKS
White Plains   LGT RAIN  57  55  93 E13G23    29.57F FOG
Larchmont Harb   N/A     55 N/A N/A NE29G35     N/A
Croton O-T Hud   N/A     59 N/A N/A E1          N/A
Newburgh       DRIZZLE   59  59 100 E13       29.59F FOG
Montgomery     LGT RAIN  60  58  92 NE7       29.58F FOG
Poughkeepsie   LGT RAIN  60  57  89 NE3       29.58F FOG
Albany         LGT RAIN  57  54  89 N6        29.64F FOG
$$

NJZ001-105-106-008-010-013-015-019>022-104-252100-
NEW JERSEY

CITY           SKY/WX    TMP DP  RH WIND       PRES   REMARKS
Newark/Liberty DRIZZLE   58  58 100 NE9       29.56S FOG
Teterboro      LGT RAIN  58  56  93 E9G20     29.56F FOG
Caldwell       CLOUDY    60  57  89 NE6G18    29.57F FOG
Somerville     CLOUDY    62  59  90 E5        29.52F
Linden         NOT AVBL
Perth Amboy      N/A     57 N/A N/A E10G17      N/A
Sussex         CLOUDY    60  58  92 NE8       29.56F FOG
Andover          N/A     60  55  83 VRB6      29.55F
Trenton        CLOUDY    62  60  93 E12       29.51F
Millville      SUNNY     78  61  55 VRB6      29.46F
Atlantic City  SUNNY     72  64  76 S12       29.49F
Wrightstown    CLOUDY    64  63  94 NE9       29.49S
Toms River     CLOUDY    67  65  93 NE6       29.52S
Belmar         FOG       60  59  96 E7        29.54F VSB 1/2
$$

PAZ047>061-062-071-252100-
EASTERN PENNSYLVANIA

CITY           SKY/WX    TMP DP  RH WIND       PRES   REMARKS
Philadelphia   CLOUDY    66  62  87 NE8       29.49F
Allentown      CLOUDY    63  58  83 E13       29.51F
Scranton       CLOUDY    64  56  75 NE10      29.50S
$$

CTZ002-004>006-009-010-012-RIZ004-006-007-MAZ004-011-015-252100-
SOUTHERN NEW ENGLAND
 IN CT

CITY           SKY/WX    TMP DP  RH WIND       PRES   REMARKS
Bradley INTL   LGT RAIN  57  55  93 NE12      29.67F FOG
Hartford       LGT RAIN  59  56  89 NE14G21   29.64F
Danbury        LGT RAIN  57  57 100 NE10      29.60F FOG
Wtrbury/Oxford DRIZZLE   57  52  82 E8G20     29.61F FOG
Bridgeport     LGT RAIN  59  56  89 E16       29.59F FOG
Meriden        CLOUDY    58  57  97 NE6       29.62F
New Haven      LGT RAIN  60  58  92 E8        29.60F FOG
Chester        NOT AVBL
Groton         CLOUDY    59  57  93 NE12      29.63F FOG
Wilimantic     CLOUDY    58  55  90 NE13      29.66F

 IN RI

CITY           SKY/WX    TMP DP  RH WIND       PRES   REMARKS
Providence     LGT RAIN  56  56 100 NE15      29.69F FOG
Block Island   LGT RAIN  55  54  96 NE13G20   29.65F FOG
Westerly       LGT RAIN  59  57  93 NE9       29.65F FOG
 IN MA

CITY           SKY/WX    TMP DP  RH WIND       PRES   REMARKS
Boston         LGT RAIN  52  52 100 NE20      29.73  FOG
Worcester      LGT RAIN  50  49  96 NE12G21   29.71F VSB 1/2
Westfield      LGT RAIN  55  55 100 NE7       29.67F FOG
Provincetown   LGT RAIN  52  52 100 E14       29.72F FOG
Nantucket      FOG       55  53  93 E13       29.66F VSB 3/4
$$

ANZ330-335-338-340-345-350-353-355-252100-
COASTAL MARINE OBSERVATIONS


STATION/POSITION TIME  SKY/WX   TEMP    WIND        PRES    VSBY  WAVE
                                AIR SEA DIR/SP/G                  HT/PER
                 (UTC)          (F)     (DEG/KT/KT) (MB)    (MI)  (FT/S)
NY HARB ENTRANCE 1850            56 55   90/ 17/ 21 1000.7          7/ 6
20 S FIRE ISLAND 1950            55 55   90/ 12/ 14 1000.1          5/ 6
GREAT SOUTH BAY  1930            57 63   80/ 21/ 27   N/A
23 SSW MONTAUK P NOT AVBL
15 E BARNEGAT LI 1930               57                N/A           5/ 6
HUDSON CANYON    1950            58 54  170/ 10/ 12 1001.1          4/ 8
KINGS POINT      1942            58 57   70/  5/  9 1000.9
EXECUTION ROCKS  1945            56                   N/A
CENTRAL LI SOUND 1930            55      90/ 17/ 21   N/A           4/ 5
EASTERN LI SOUND NOT AVBL
ROBBINS REEF     1948            58      40/ 14/ 15 1001.2
$$


>>>>>>>>>>>>>>>>>>>>>>>>>>>> KEY <<<<<<<<<<<<<<<<<<<<<<<<<<<
>                                                          <
>     SKY/WX - Sky Condition/Present Weather               <
>     TMP    - Temperature in Fahrenheit                   <
>     DP     - Dew Point in Fahrenheit                     <
>     RH     - Relative Humidity in Percent                <
>     WIND   - Direction (from) and Speed in MPH           <
>     PRES   - Mean Sea Level Pressure (inches of Hg)      <
>     WCI    - Wind Chill Index                            <
>     VSB    - VISIBILITY IN MILES                         <
>     HX     - HEAT INDEX                                  <
>     TC     - TEMPERATURE IN CELSIUS                      <
>     VRB    - VARIABLE WIND DIRECTION                     <
>                                                          <
>>>>>>>>>>>>>>>>>>>>>>>>>>>> KEY <<<<<<<<<<<<<<<<<<<<<<<<<<<




USA.gov is the U.S. government's official web portal to all federal, state and local government web resources and services.